Location: Occidental Observatory
(38.4214°N, 122.9202°W)
Time: 10:10:52
(UTC-08:00)

Daily predictions for brighter satellites

Satellite Brightness Start Highest point End
(mag) Time Altitude Azimuth Time Altitude Azimuth Time Altitude Azimuth
Cosmos 2333 Rocket 2.3 17:36:59 10° S 17:42:32 63° ESE 17:48:07 10° NNE
CZ-2C R/B 2.6 17:40:07 10° S 17:45:08 83° WSW 17:50:01 10° NNW
Cosmos 2219 Rocket 2.3 17:41:52 10° SSW 17:47:31 89° E 17:53:11 10° NNE
Cosmos 2084 3.3 17:43:51 10° SW 17:47:47 76° NW 17:51:36 10° NNE
Cosmos 1626 4.2 17:47:50 10° E 17:48:02 10° E 17:48:14 10° E
CENTAUR R/B 3.5 17:44:15 10° WSW 17:50:04 46° NW 17:56:38 10° NNE
AQUARIUS 4.4 17:47:17 10° S 17:51:47 80° WSW 17:56:18 10° NNW
BREEZE-M DEB (TANK) 2.5 17:49:52 10° SW 17:52:36 41° SE 17:54:51 10° ENE
Cosmos 1674 4.0 17:51:10 10° SSW 17:54:49 44° W 17:58:32 10° N
Cosmos 1634 Rocket 4.0 17:50:18 10° N 17:56:28 67° E 18:02:35 10° SSE
NOSS 0 Rocket 4.0 17:50:29 10° SSW 17:56:40 77° ESE 18:02:54 10° NNE
Cosmos 1908 4.5 17:53:14 10° NNW 17:56:59 47° W 18:00:43 10° SSW
OTV 4 1.2 17:54:47 10° W 17:57:41 49° SSW 18:00:34 10° ESE
IDEFIX/ARIANE 42P 3.2 17:53:13 10° S 17:58:22 62° W 18:03:34 10° NNW
Cosmos 2278 Rocket 2.4 17:52:51 10° NNW 17:58:23 50° ENE 18:03:52 10° SE
Cosmos 1461 4.2 17:56:06 10° SSE 17:59:23 22° ESE 18:02:30 10° ENE
COSMOS 2441 4.3 17:55:20 10° SSE 18:00:12 77° ENE 18:05:03 10° N
Cosmos 2058 3.3 17:59:01 10° SSE 18:02:52 40° E 18:06:43 10° NNE
Atlas Centaur 2 4.4 17:59:54 10° WSW 18:03:11 16° SSW 18:06:05 10° S
Aureole 2 Rocket 3.1 18:01:40 10° S 18:05:06 42° ESE 18:08:51 10° NNE
Cosmos 1726 2.2 18:01:40 10° N 18:05:24 59° E 18:09:07 10° SSE
Cosmos 1340 Rocket 3.4 18:03:15 10° SSE 18:06:49 34° E 18:10:23 10° NNE
Meteor 1-27 4.5 18:03:58 10° N 18:09:37 49° ENE 18:15:15 10° SSE
SL-14 R/B 3.2 18:06:21 10° S 18:10:14 71° E 18:14:12 10° NNE
Cosmos 1844 4.0 18:04:59 10° NNW 18:10:45 74° WSW 18:16:31 10° SSE
Cosmos 1484 Rocket 2.7 18:10:15 10° SSE 18:14:09 84° ENE 18:18:09 10° N
YAOGAN 1 3.7 18:10:59 10° S 18:15:10 49° W 18:19:23 10° NNW
Cosmos 1300 2.6 18:11:58 10° N 18:15:48 80° E 18:19:38 10° S
MONITOR-E 4.4 18:12:44 10° S 18:15:53 78° WSW 18:19:03 10° NNW
COSMO-SKYMED 1 2.5 18:12:17 10° NNE 18:16:39 78° ESE 18:20:59 10° S
Cosmos 1707 Rocket 4.5 18:13:49 10° NNE 18:17:26 25° ENE 18:21:02 10° SE
Resurs 01 Rocket 3.1 18:18:16 16° ENE 18:18:36 16° ENE 18:21:17 10° NNE
Cosmos 2237 Rocket 2.3 18:15:44 10° SSW 18:21:21 80° WNW 18:27:01 10° NNE
Cosmos 44 3.8 18:17:59 10° SW 18:23:14 66° WNW 18:28:17 10° NNE
Cosmos 1356 Rocket 4.1 18:21:49 10° SSE 18:25:18 29° E 18:27:46 16° NE
ALOS 3.4 18:21:54 10° ESE 18:25:21 21° ENE 18:28:48 10° NNE
Cosmos 1666 Rocket 4.3 18:22:44 10° SSE 18:26:32 30° E 18:30:02 12° NNE
SL-16 R/B 2.4 18:22:13 10° S 18:27:37 48° ESE 18:32:47 11° NE
Cosmos 372 Rocket 3.9 18:29:25 10° NNW 18:34:33 86° ENE 18:39:39 10° SSE
BREEZE M DEB (TANK) 2.1 18:36:23 10° NW 18:38:28 32° NNE 18:38:28 32° NNE
Cosmos 2297 3.8 18:34:23 10° NNW 18:39:58 52° ENE 18:45:31 10° SE
Cosmos 2151 3.9 18:36:04 10° SSW 18:40:08 48° W 18:44:13 10° N
Meteor 1-28 Rocket 3.3 18:36:45 10° N 18:40:28 77° WNW 18:44:09 10° SSW
Cosmos 540 Rocket 4.3 18:36:32 10° SW 18:41:33 51° WNW 18:46:36 10° N
Aureole 1 Rocket 4.3 18:38:11 10° SSE 18:42:43 34° E 18:46:17 19° NE
FREGAT/IRIS 2.9 18:39:52 10° SSE 18:42:47 43° ENE 18:45:43 10° N
Cosmos 2279 Rocket 4.0 18:40:01 10° N 18:46:15 84° W 18:52:29 10° S
Lacrosse 5 rocket 1.0 18:42:48 10° NW 18:46:38 73° NE 18:49:00 23° SE
Timation 1 Rocket 4.2 18:50:35 10° NNW 18:56:38 80° ENE 19:02:38 10° SSE
USA 215 3.2 18:52:54 16° ESE 18:58:17 69° NE 19:04:48 10° NW
SL-19 R/B 4.3 18:53:55 10° SSE 18:59:44 59° ENE 19:05:17 10° N
Nadezhda 4 Rocket 3.9 18:58:20 10° S 19:04:33 78° E 19:10:52 10° N
Cosmos 1805 Rocket 4.0 19:00:43 10° SSW 19:05:07 62° W 19:09:33 10° N
Abrixas 4.1 19:04:10 10° W 19:06:32 27° NNW 19:06:32 27° NNW
FENGYUN 3A 3.6 19:03:36 10° SSE 19:08:49 57° ENE 19:14:06 10° N
H-2A ROCKET BODY 3.7 18:48:40 10° WSW 19:12:05 46° S 19:15:30 25° SE
Haruka 4.4 19:07:47 10° WSW 19:12:13 51° S 19:18:25 26° ESE
SJ-6B 3.3 19:09:46 10° S 19:13:46 64° WSW 19:17:53 10° NNW
FengYun 1-2 T 4.1 19:12:02 10° SSE 19:17:35 74° ENE 19:23:07 10° N
Cosmos 1184 Rocket 3.7 19:16:31 10° SSW 19:19:01 45° SW 19:19:01 45° SW
Spot 2 Rocket 3.3 19:14:59 10° SSE 19:19:59 69° ENE 19:25:01 10° N
Lacrosse 4 Rocket 3.8 19:18:37 10° N 19:18:57 12° N 19:18:57 12° N
Cosmos 1626 3.3 19:19:22 10° SSW 19:22:56 42° W 19:24:59 22° NNW
Cosmos 1092 Rocket 3.9 19:17:41 10° S 19:24:00 79° E 19:30:22 10° N
Sich 1 3.6 19:20:04 10° SSW 19:24:27 59° W 19:27:36 18° N
Cosmos 1900 4.4 19:24:56 10° NNW 19:29:53 74° WSW 19:31:43 39° SSE
Cosmos 1633 Rocket 3.6 19:26:18 10° SSW 19:30:38 57° W 19:32:44 28° NNW
Cosmos 1603 3.8 19:26:29 10° S 19:31:20 56° SE 19:31:20 56° SE
Cosmos 1455 2.9 19:28:29 10° NNW 19:32:10 51° W 19:35:52 10° S
OTV 4 3.5 19:31:48 10° WSW 19:32:49 13° SW 19:32:49 13° SW
Cosmos 1461 4.4 19:34:38 10° WSW 19:38:23 31° NW 19:39:01 29° NW
Cosmos 923 Rocket 4.1 19:34:47 10° SSW 19:39:05 61° S 19:39:05 61° S
USA 229 DEB 3.6 19:33:30 10° SSW 19:40:21 87° ESE 19:42:09 54° NE
USA 229 3.6 19:33:37 10° SSW 19:40:28 86° ESE 19:42:12 55° NE
Iridium 4 Rocket 3.5 19:36:38 10° S 19:41:10 63° W 19:41:10 63° W
Cosmos 2195 Rocket 4.4 19:44:01 10° S 19:49:30 73° SSE 19:49:30 73° SSE
Resurs 01 Rocket 2.9 19:55:48 37° WNW 19:55:48 37° WNW 19:58:58 10° NNW
ALOS 3.6 19:58:13 10° SSW 20:02:31 37° W 20:06:51 10° NNW
SL-16 R/B 4.2 20:07:28 10° WSW 20:11:57 24° NW 20:14:43 17° NNW
Lacrosse 5 rocket 4.5 20:24:18 10° WSW 20:24:49 11° WSW 20:24:49 11° WSW
